Data supplied by UK-AIR on 14/3/2024
All Data GMT hour ending 
Status: R =Ratified P=Provisional,P*=As supplied
,,Eastbourne,,,,,,,,,,,,,,,,,,,,,,,
Date,time,"PM<sub>10</sub> particulate matter (Hourly measured)",status,unit,"Nitric oxide",status,unit,"Nitrogen dioxide",status,unit,"Nitrogen oxides as nitrogen dioxide",status,unit,"Ozone",status,unit,"PM<sub>2.5</sub> particulate matter (Hourly measured)",status,unit
 
01-01-2023,01:00,12.725,R,ugm-3 (FIDAS),0.34773,R,ugm-3,0.85449,R,ugm-3,1.38768,R,ugm-3,,,,7.052,R,ugm-3 (Ref.eq)
01-01-2023,02:00,19.000,R,ugm-3 (FIDAS),0.34773,R,ugm-3,2.04393,R,ugm-3,2.57711,R,ugm-3,,,,8.892,R,ugm-3 (Ref.eq)
01-01-2023,03:00,18.225,R,ugm-3 (FIDAS),0.39120,R,ugm-3,1.72948,R,ugm-3,2.32931,R,ugm-3,,,,8.679,R,ugm-3 (Ref.eq)
01-01-2023,04:00,20.500,R,ugm-3 (FIDAS),0.35860,R,ugm-3,1.08563,R,ugm-3,1.63547,R,ugm-3,,,,9.741,R,ugm-3 (Ref.eq)
01-01-2023,05:00,19.475,R,ugm-3 (FIDAS),0.30427,R,ugm-3,4.35729,R,ugm-3,4.82382,R,ugm-3,,,,8.726,R,ugm-3 (Ref.eq)
01-01-2023,06:00,16.475,R,ugm-3 (FIDAS),0.29340,R,ugm-3,4.01051,R,ugm-3,4.46038,R,ugm-3,,,,7.311,R,ugm-3 (Ref.eq)
01-01-2023,07:00,15.850,R,ugm-3 (FIDAS),0.17387,R,ugm-3,4.55723,R,ugm-3,4.82382,R,ugm-3,,,,7.759,R,ugm-3 (Ref.eq)
01-01-2023,08:00,18.350,R,ugm-3 (FIDAS),0.35860,R,ugm-3,3.31582,R,ugm-3,3.86567,R,ugm-3,,,,8.844,R,ugm-3 (Ref.eq)
01-01-2023,09:00,21.625,R,ugm-3 (FIDAS),0.48900,R,ugm-3,3.31411,R,ugm-3,4.06390,R,ugm-3,,,,10.684,R,ugm-3 (Ref.eq)
01-01-2023,10:00,21.025,R,ugm-3 (FIDAS),0.39120,R,ugm-3,3.76143,R,ugm-3,4.36126,R,ugm-3,,,,10.071,R,ugm-3 (Ref.eq)
01-01-2023,11:00,18.925,R,ugm-3 (FIDAS),0.55420,R,ugm-3,2.02471,R,ugm-3,2.87447,R,ugm-3,,,,9.505,R,ugm-3 (Ref.eq)
01-01-2023,12:00,19.725,R,ugm-3 (FIDAS),0.48900,R,ugm-3,4.25575,R,ugm-3,5.00554,R,ugm-3,,,,10.236,R,ugm-3 (Ref.eq)
01-01-2023,13:00,20.975,R,ugm-3 (FIDAS),0.22820,R,ugm-3,2.72281,R,ugm-3,3.07271,R,ugm-3,,,,10.330,R,ugm-3 (Ref.eq)
01-01-2023,14:00,18.425,R,ugm-3 (FIDAS),0.52160,R,ugm-3,3.85885,R,ugm-3,4.65862,R,ugm-3,,,,9.528,R,ugm-3 (Ref.eq)
01-01-2023,15:00,17.125,R,ugm-3 (FIDAS),0.58680,R,ugm-3,3.85799,R,ugm-3,4.75774,R,ugm-3,,,,8.868,R,ugm-3 (Ref.eq)
01-01-2023,16:00,12.825,R,ugm-3 (FIDAS),0.52160,R,ugm-3,3.16501,R,ugm-3,3.96479,R,ugm-3,,,,6.769,R,ugm-3 (Ref.eq)
01-01-2023,17:00,11.525,R,ugm-3 (FIDAS),0.48900,R,ugm-3,4.50355,R,ugm-3,5.25334,R,ugm-3,,,,5.542,R,ugm-3 (Ref.eq)
01-01-2023,18:00,8.775,R,ugm-3 (FIDAS),0.58680,R,ugm-3,6.23687,R,ugm-3,7.13661,R,ugm-3,,,,4.481,R,ugm-3 (Ref.eq)
01-01-2023,19:00,5.925,R,ugm-3 (FIDAS),0.68460,R,ugm-3,8.46578,R,ugm-3,9.51548,R,ugm-3,,,,4.198,R,ugm-3 (Ref.eq)
01-01-2023,20:00,3.925,R,ugm-3 (FIDAS),0.55420,R,ugm-3,7.92233,R,ugm-3,8.77209,R,ugm-3,,,,3.066,R,ugm-3 (Ref.eq)
01-01-2023,21:00,3.425,R,ugm-3 (FIDAS),0.48900,R,ugm-3,4.75135,R,ugm-3,5.50114,R,ugm-3,,,,2.689,R,ugm-3 (Ref.eq)
01-01-2023,22:00,4.800,R,ugm-3 (FIDAS),0.32600,R,ugm-3,6.04204,R,ugm-3,6.54190,R,ugm-3,,,,3.750,R,ugm-3 (Ref.eq)
01-01-2023,23:00,2.650,R,ugm-3 (FIDAS),0.13040,R,ugm-3,3.66572,R,ugm-3,3.86567,R,ugm-3,,,,2.170,R,ugm-3 (Ref.eq)
01-01-2023,24:00,2.500,R,ugm-3 (FIDAS),0.29340,R,ugm-3,1.23516,R,ugm-3,1.68503,R,ugm-3,,,,1.863,R,ugm-3 (Ref.eq)
02-01-2023,01:00,2.650,R,ugm-3 (FIDAS),0.39138,R,ugm-3,1.64653,R,ugm-3,2.24663,R,ugm-3,,,,1.816,R,ugm-3 (Ref.eq)
02-01-2023,02:00,2.375,R,ugm-3 (FIDAS),0.34789,R,ugm-3,1.58105,R,ugm-3,2.11448,R,ugm-3,,,,1.439,R,ugm-3 (Ref.eq)
02-01-2023,03:00,3.275,R,ugm-3 (FIDAS),0.55445,R,ugm-3,1.92510,R,ugm-3,2.77525,R,ugm-3,,,,1.722,R,ugm-3 (Ref.eq)
02-01-2023,04:00,3.300,R,ugm-3 (FIDAS),0.39138,R,ugm-3,1.48134,R,ugm-3,2.08144,R,ugm-3,,,,1.722,R,ugm-3 (Ref.eq)
02-01-2023,05:00,4.250,R,ugm-3 (FIDAS),0.42399,R,ugm-3,3.11630,R,ugm-3,3.76641,R,ugm-3,,,,2.028,R,ugm-3 (Ref.eq)
02-01-2023,06:00,4.150,R,ugm-3 (FIDAS),0.29353,R,ugm-3,5.49689,R,ugm-3,5.94696,R,ugm-3,,,,2.264,R,ugm-3 (Ref.eq)
02-01-2023,07:00,7.200,R,ugm-3 (FIDAS),0.32615,R,ugm-3,2.22561,R,ugm-3,2.72569,R,ugm-3,,,,2.854,R,ugm-3 (Ref.eq)
02-01-2023,08:00,5.400,R,ugm-3 (FIDAS),0.32615,R,ugm-3,4.20793,R,ugm-3,4.70801,R,ugm-3,,,,2.665,R,ugm-3 (Ref.eq)
02-01-2023,09:00,7.675,R,ugm-3 (FIDAS),0.32615,R,ugm-3,3.71235,R,ugm-3,4.21243,R,ugm-3,,,,3.349,R,ugm-3 (Ref.eq)
02-01-2023,10:00,8.125,R,ugm-3 (FIDAS),0.55445,R,ugm-3,5.34461,R,ugm-3,6.19475,R,ugm-3,,,,3.561,R,ugm-3 (Ref.eq)
02-01-2023,11:00,7.675,R,ugm-3 (FIDAS),1.27198,R,ugm-3,10.24094,R,ugm-3,12.19128,R,ugm-3,,,,3.443,R,ugm-3 (Ref.eq)
02-01-2023,12:00,5.225,R,ugm-3 (FIDAS),0.84798,R,ugm-3,5.24144,R,ugm-3,6.54166,R,ugm-3,,,,2.712,R,ugm-3 (Ref.eq)
02-01-2023,13:00,5.175,R,ugm-3 (FIDAS),1.07629,R,ugm-3,5.13917,R,ugm-3,6.78945,R,ugm-3,,,,2.476,R,ugm-3 (Ref.eq)
02-01-2023,14:00,4.950,R,ugm-3 (FIDAS),1.07629,R,ugm-3,6.13033,R,ugm-3,7.78061,R,ugm-3,,,,2.689,R,ugm-3 (Ref.eq)
02-01-2023,15:00,5.400,R,ugm-3 (FIDAS),1.07629,R,ugm-3,6.08077,R,ugm-3,7.73105,R,ugm-3,,,,2.925,R,ugm-3 (Ref.eq)
02-01-2023,16:00,6.175,R,ugm-3 (FIDAS),0.61968,R,ugm-3,6.97912,R,ugm-3,7.92928,R,ugm-3,,,,3.538,R,ugm-3 (Ref.eq)
02-01-2023,17:00,6.100,R,ugm-3 (FIDAS),0.45661,R,ugm-3,8.96369,R,ugm-3,9.66382,R,ugm-3,,,,4.505,R,ugm-3 (Ref.eq)
02-01-2023,18:00,10.250,R,ugm-3 (FIDAS),3.16363,R,ugm-3,24.14061,R,ugm-3,28.99145,R,ugm-3,,,,7.972,R,ugm-3 (Ref.eq)
02-01-2023,19:00,17.175,R,ugm-3 (FIDAS),5.87066,R,ugm-3,38.12814,R,ugm-3,47.12968,R,ugm-3,,,,14.057,R,ugm-3 (Ref.eq)
02-01-2023,20:00,21.275,R,ugm-3 (FIDAS),17.05752,R,ugm-3,38.96476,R,ugm-3,65.11925,R,ugm-3,,,,18.420,R,ugm-3 (Ref.eq)
02-01-2023,21:00,24.025,R,ugm-3 (FIDAS),36.75683,R,ugm-3,32.39874,R,ugm-3,88.75843,R,ugm-3,,,,20.495,R,ugm-3 (Ref.eq)
02-01-2023,22:00,28.850,R,ugm-3 (FIDAS),36.59376,R,ugm-3,24.27348,R,ugm-3,80.38312,R,ugm-3,,,,25.590,R,ugm-3 (Ref.eq)
02-01-2023,23:00,24.200,R,ugm-3 (FIDAS),27.39639,R,ugm-3,26.97756,R,ugm-3,68.98478,R,ugm-3,,,,21.109,R,ugm-3 (Ref.eq)
02-01-2023,24:00,22.050,R,ugm-3 (FIDAS),18.06857,R,ugm-3,23.19134,R,ugm-3,50.89610,R,ugm-3,,,,18.750,R,ugm-3 (Ref.eq)
03-01-2023,01:00,18.250,R,ugm-3 (FIDAS),11.22454,R,ugm-3,23.88792,R,ugm-3,41.09865,R,ugm-3,,,,15.377,R,ugm-3 (Ref.eq)
03-01-2023,02:00,7.525,R,ugm-3 (FIDAS),0.60908,R,ugm-3,5.40928,R,ugm-3,6.34320,R,ugm-3,,,,4.104,R,ugm-3 (Ref.eq)
03-01-2023,03:00,10.825,R,ugm-3 (FIDAS),0.32630,R,ugm-3,5.89244,R,ugm-3,6.39276,R,ugm-3,,,,5.259,R,ugm-3 (Ref.eq)
03-01-2023,04:00,12.000,R,ugm-3 (FIDAS),0.35892,R,ugm-3,2.91859,R,ugm-3,3.46894,R,ugm-3,,,,5.637,R,ugm-3 (Ref.eq)
03-01-2023,05:00,11.500,R,ugm-3 (FIDAS),0.16315,R,ugm-3,2.07899,R,ugm-3,2.32914,R,ugm-3,,,,5.330,R,ugm-3 (Ref.eq)
03-01-2023,06:00,12.600,R,ugm-3 (FIDAS),0.19578,R,ugm-3,3.21831,R,ugm-3,3.51849,R,ugm-3,,,,5.566,R,ugm-3 (Ref.eq)
03-01-2023,07:00,12.350,R,ugm-3 (FIDAS),0.35892,R,ugm-3,4.00883,R,ugm-3,4.55917,R,ugm-3,,,,5.307,R,ugm-3 (Ref.eq)
03-01-2023,08:00,13.075,R,ugm-3 (FIDAS),0.52207,R,ugm-3,4.10557,R,ugm-3,4.90607,R,ugm-3,,,,5.873,R,ugm-3 (Ref.eq)
03-01-2023,09:00,15.850,R,ugm-3 (FIDAS),0.45681,R,ugm-3,3.71007,R,ugm-3,4.41051,R,ugm-3,,,,7.146,R,ugm-3 (Ref.eq)
03-01-2023,10:00,15.500,R,ugm-3 (FIDAS),0.61996,R,ugm-3,3.26169,R,ugm-3,4.21228,R,ugm-3,,,,7.193,R,ugm-3 (Ref.eq)
03-01-2023,11:00,15.625,R,ugm-3 (FIDAS),0.52207,R,ugm-3,2.71800,R,ugm-3,3.51849,R,ugm-3,,,,7.288,R,ugm-3 (Ref.eq)
03-01-2023,12:00,15.425,R,ugm-3 (FIDAS),0.84837,R,ugm-3,4.34860,R,ugm-3,5.64941,R,ugm-3,,,,7.146,R,ugm-3 (Ref.eq)
03-01-2023,13:00,15.000,R,ugm-3 (FIDAS),0.61996,R,ugm-3,3.36080,R,ugm-3,4.31139,R,ugm-3,,,,7.382,R,ugm-3 (Ref.eq)
03-01-2023,14:00,14.600,R,ugm-3 (FIDAS),0.61996,R,ugm-3,4.64926,R,ugm-3,5.59986,R,ugm-3,,,,7.429,R,ugm-3 (Ref.eq)
03-01-2023,15:00,14.200,R,ugm-3 (FIDAS),0.58733,R,ugm-3,4.15418,R,ugm-3,5.05474,R,ugm-3,,,,7.311,R,ugm-3 (Ref.eq)
03-01-2023,16:00,14.350,R,ugm-3 (FIDAS),0.39155,R,ugm-3,4.40481,R,ugm-3,5.00518,R,ugm-3,,,,7.335,R,ugm-3 (Ref.eq)
03-01-2023,17:00,15.200,R,ugm-3 (FIDAS),0.48944,R,ugm-3,4.94850,R,ugm-3,5.69897,R,ugm-3,,,,7.948,R,ugm-3 (Ref.eq)
03-01-2023,18:00,13.700,R,ugm-3 (FIDAS),0.52207,R,ugm-3,4.20468,R,ugm-3,5.00518,R,ugm-3,,,,7.429,R,ugm-3 (Ref.eq)
03-01-2023,19:00,14.925,R,ugm-3 (FIDAS),0.45681,R,ugm-3,4.00741,R,ugm-3,4.70784,R,ugm-3,,,,7.689,R,ugm-3 (Ref.eq)
03-01-2023,20:00,10.200,R,ugm-3 (FIDAS),0.39155,R,ugm-3,3.16590,R,ugm-3,3.76628,R,ugm-3,,,,5.896,R,ugm-3 (Ref.eq)
03-01-2023,21:00,8.450,R,ugm-3 (FIDAS),0.52207,R,ugm-3,4.20468,R,ugm-3,5.00518,R,ugm-3,,,,4.976,R,ugm-3 (Ref.eq)
03-01-2023,22:00,7.775,R,ugm-3 (FIDAS),0.39155,R,ugm-3,1.82788,R,ugm-3,2.42826,R,ugm-3,,,,4.528,R,ugm-3 (Ref.eq)
03-01-2023,23:00,7.000,R,ugm-3 (FIDAS),0.09789,R,ugm-3,2.17905,R,ugm-3,2.32914,R,ugm-3,,,,4.033,R,ugm-3 (Ref.eq)
03-01-2023,24:00,6.800,R,ugm-3 (FIDAS),0.42418,R,ugm-3,1.97608,R,ugm-3,2.62648,R,ugm-3,,,,3.962,R,ugm-3 (Ref.eq)
04-01-2023,01:00,7.100,R,ugm-3 (FIDAS),0.34821,R,ugm-3,1.64649,R,ugm-3,2.18040,R,ugm-3,,,,4.363,R,ugm-3 (Ref.eq)
04-01-2023,02:00,12.175,R,ugm-3 (FIDAS),0.43526,R,ugm-3,1.71123,R,ugm-3,2.37862,R,ugm-3,,,,7.217,R,ugm-3 (Ref.eq)
04-01-2023,03:00,9.275,R,ugm-3 (FIDAS),0.35909,R,ugm-3,2.27401,R,ugm-3,2.82460,R,ugm-3,,,,5.165,R,ugm-3 (Ref.eq)
04-01-2023,04:00,15.100,R,ugm-3 (FIDAS),0.32644,R,ugm-3,4.35580,R,ugm-3,4.85634,R,ugm-3,,,,8.962,R,ugm-3 (Ref.eq)
04-01-2023,05:00,20.825,R,ugm-3 (FIDAS),0.48966,R,ugm-3,2.66845,R,ugm-3,3.41926,R,ugm-3,,,,12.264,R,ugm-3 (Ref.eq)
04-01-2023,06:00,22.025,R,ugm-3 (FIDAS),0.39173,R,ugm-3,2.17441,R,ugm-3,2.77505,R,ugm-3,,,,13.396,R,ugm-3 (Ref.eq)
04-01-2023,07:00,17.350,R,ugm-3 (FIDAS),0.19587,R,ugm-3,2.37562,R,ugm-3,2.67594,R,ugm-3,,,,11.085,R,ugm-3 (Ref.eq)
04-01-2023,08:00,6.900,R,ugm-3 (FIDAS),0.39173,R,ugm-3,2.37262,R,ugm-3,2.97327,R,ugm-3,,,,4.788,R,ugm-3 (Ref.eq)
04-01-2023,09:00,4.875,R,ugm-3 (FIDAS),0.62024,R,ugm-3,7.17591,R,ugm-3,8.12693,R,ugm-3,,,,2.712,R,ugm-3 (Ref.eq)
04-01-2023,10:00,4.200,R,ugm-3 (FIDAS),0.45702,R,ugm-3,4.70068,R,ugm-3,5.40144,R,ugm-3,,,,2.736,R,ugm-3 (Ref.eq)
04-01-2023,11:00,11.100,R,ugm-3 (FIDAS),0.48966,R,ugm-3,4.20464,R,ugm-3,4.95545,R,ugm-3,,,,6.250,R,ugm-3 (Ref.eq)
04-01-2023,12:00,11.700,R,ugm-3 (FIDAS),0.65288,R,ugm-3,5.88700,R,ugm-3,6.88807,R,ugm-3,,,,7.005,R,ugm-3 (Ref.eq)
04-01-2023,13:00,16.625,R,ugm-3 (FIDAS),0.52231,R,ugm-3,3.06439,R,ugm-3,3.86525,R,ugm-3,,,,9.859,R,ugm-3 (Ref.eq)
04-01-2023,14:00,27.050,R,ugm-3 (FIDAS),0.42438,R,ugm-3,1.92613,R,ugm-3,2.57683,R,ugm-3,,,,15.731,R,ugm-3 (Ref.eq)
04-01-2023,15:00,27.250,R,ugm-3 (FIDAS),0.39173,R,ugm-3,4.30525,R,ugm-3,4.90589,R,ugm-3,,,,15.637,R,ugm-3 (Ref.eq)
04-01-2023,16:00,28.450,R,ugm-3 (FIDAS),0.45702,R,ugm-3,4.05648,R,ugm-3,4.75723,R,ugm-3,,,,16.274,R,ugm-3 (Ref.eq)
04-01-2023,17:00,25.225,R,ugm-3 (FIDAS),0.39173,R,ugm-3,5.04856,R,ugm-3,5.64921,R,ugm-3,,,,14.741,R,ugm-3 (Ref.eq)
04-01-2023,18:00,21.825,R,ugm-3 (FIDAS),0.45702,R,ugm-3,3.36271,R,ugm-3,4.06347,R,ugm-3,,,,12.382,R,ugm-3 (Ref.eq)
04-01-2023,19:00,21.875,R,ugm-3 (FIDAS),0.39173,R,ugm-3,2.96728,R,ugm-3,3.56792,R,ugm-3,,,,12.594,R,ugm-3 (Ref.eq)
04-01-2023,20:00,24.575,R,ugm-3 (FIDAS),0.32644,R,ugm-3,2.52229,R,ugm-3,3.02282,R,ugm-3,,,,14.127,R,ugm-3 (Ref.eq)
04-01-2023,21:00,23.850,R,ugm-3 (FIDAS),0.29380,R,ugm-3,2.96877,R,ugm-3,3.41926,R,ugm-3,,,,13.774,R,ugm-3 (Ref.eq)
04-01-2023,22:00,23.500,R,ugm-3 (FIDAS),0.29380,R,ugm-3,2.52278,R,ugm-3,2.97327,R,ugm-3,,,,13.396,R,ugm-3 (Ref.eq)
04-01-2023,23:00,24.825,R,ugm-3 (FIDAS),0.39173,R,ugm-3,2.12485,R,ugm-3,2.72550,R,ugm-3,,,,14.151,R,ugm-3 (Ref.eq)
04-01-2023,24:00,25.475,R,ugm-3 (FIDAS),0.42438,R,ugm-3,1.43059,R,ugm-3,2.08129,R,ugm-3,,,,14.741,R,ugm-3 (Ref.eq)
05-01-2023,01:00,27.100,R,ugm-3 (FIDAS),0.21773,R,ugm-3,1.45005,R,ugm-3,1.78390,R,ugm-3,,,,15.519,R,ugm-3 (Ref.eq)
05-01-2023,02:00,28.000,R,ugm-3 (FIDAS),0.60963,R,ugm-3,1.77412,R,ugm-3,2.70888,R,ugm-3,,,,16.203,R,ugm-3 (Ref.eq)
05-01-2023,03:00,29.650,R,ugm-3 (FIDAS),0.39191,R,ugm-3,2.71911,R,ugm-3,3.32003,R,ugm-3,,,,16.887,R,ugm-3 (Ref.eq)
05-01-2023,04:00,29.375,R,ugm-3 (FIDAS),0.22861,R,ugm-3,2.02799,R,ugm-3,2.37853,R,ugm-3,,,,16.675,R,ugm-3 (Ref.eq)
05-01-2023,05:00,29.425,R,ugm-3 (FIDAS),0.39191,R,ugm-3,1.97582,R,ugm-3,2.57674,R,ugm-3,,,,16.085,R,ugm-3 (Ref.eq)
05-01-2023,06:00,27.950,R,ugm-3 (FIDAS),0.29393,R,ugm-3,3.01800,R,ugm-3,3.46869,R,ugm-3,,,,15.330,R,ugm-3 (Ref.eq)
05-01-2023,07:00,25.750,R,ugm-3 (FIDAS),0.42457,R,ugm-3,3.16456,R,ugm-3,3.81556,R,ugm-3,,,,14.458,R,ugm-3 (Ref.eq)
05-01-2023,08:00,14.575,R,ugm-3 (FIDAS),0.55520,R,ugm-3,2.61739,R,ugm-3,3.46869,R,ugm-3,,,,9.151,R,ugm-3 (Ref.eq)
05-01-2023,09:00,2.025,R,ugm-3 (FIDAS),0.52254,R,ugm-3,5.09555,R,ugm-3,5.89677,R,ugm-3,,,,1.439,R,ugm-3 (Ref.eq)
05-01-2023,10:00,1.450,R,ugm-3 (FIDAS),0.62052,R,ugm-3,5.73816,R,ugm-3,6.68961,R,ugm-3,,,,0.920,R,ugm-3 (Ref.eq)
05-01-2023,11:00,2.300,R,ugm-3 (FIDAS),0.42457,R,ugm-3,3.90786,R,ugm-3,4.55885,R,ugm-3,,,,1.604,R,ugm-3 (Ref.eq)
05-01-2023,12:00,4.900,R,ugm-3 (FIDAS),0.71850,R,ugm-3,9.89902,R,ugm-3,11.00069,R,ugm-3,,,,2.995,R,ugm-3 (Ref.eq)
05-01-2023,13:00,8.275,R,ugm-3 (FIDAS),0.78382,R,ugm-3,9.65021,R,ugm-3,10.85204,R,ugm-3,,,,5.094,R,ugm-3 (Ref.eq)
05-01-2023,14:00,16.500,R,ugm-3 (FIDAS),,,,,,,,,,,,,9.528,R,ugm-3 (Ref.eq)
05-01-2023,15:00,19.350,R,ugm-3 (FIDAS),0.55520,R,ugm-3,6.33384,R,ugm-3,7.18514,R,ugm-3,,,,10.731,R,ugm-3 (Ref.eq)
05-01-2023,16:00,18.300,R,ugm-3 (FIDAS),0.71850,R,ugm-3,4.49777,R,ugm-3,5.59945,R,ugm-3,,,,10.425,R,ugm-3 (Ref.eq)
05-01-2023,17:00,14.100,R,ugm-3 (FIDAS),0.52254,R,ugm-3,5.19465,R,ugm-3,5.99588,R,ugm-3,,,,8.184,R,ugm-3 (Ref.eq)
05-01-2023,18:00,8.725,R,ugm-3 (FIDAS),0.45723,R,ugm-3,4.35331,R,ugm-3,5.05437,R,ugm-3,,,,4.788,R,ugm-3 (Ref.eq)
05-01-2023,19:00,10.375,R,ugm-3 (FIDAS),0.52254,R,ugm-3,5.14510,R,ugm-3,5.94632,R,ugm-3,,,,5.330,R,ugm-3 (Ref.eq)
05-01-2023,20:00,10.450,R,ugm-3 (FIDAS),0.52254,R,ugm-3,3.50986,R,ugm-3,4.31108,R,ugm-3,,,,5.000,R,ugm-3 (Ref.eq)
05-01-2023,21:00,9.950,R,ugm-3 (FIDAS),0.39191,R,ugm-3,6.58422,R,ugm-3,7.18514,R,ugm-3,,,,4.882,R,ugm-3 (Ref.eq)
05-01-2023,22:00,9.950,R,ugm-3 (FIDAS),0.26127,R,ugm-3,3.71226,R,ugm-3,4.11287,R,ugm-3,,,,4.811,R,ugm-3 (Ref.eq)
05-01-2023,23:00,8.750,R,ugm-3 (FIDAS),0.42457,R,ugm-3,3.90786,R,ugm-3,4.55885,R,ugm-3,,,,4.175,R,ugm-3 (Ref.eq)
05-01-2023,24:00,9.425,R,ugm-3 (FIDAS),0.16330,R,ugm-3,4.06070,R,ugm-3,4.31108,R,ugm-3,,,,4.410,R,ugm-3 (Ref.eq)
06-01-2023,01:00,8.950,R,ugm-3 (FIDAS),0.21773,R,ugm-3,3.36609,R,ugm-3,3.69993,R,ugm-3,,,,4.741,R,ugm-3 (Ref.eq)
06-01-2023,02:00,10.050,R,ugm-3 (FIDAS),0.43545,R,ugm-3,2.10727,R,ugm-3,2.77495,R,ugm-3,,,,5.094,R,ugm-3 (Ref.eq)
06-01-2023,03:00,9.175,R,ugm-3 (FIDAS),0.62052,R,ugm-3,2.31903,R,ugm-3,3.27048,R,ugm-3,,,,4.929,R,ugm-3 (Ref.eq)
06-01-2023,04:00,8.825,R,ugm-3 (FIDAS),0.13064,R,ugm-3,1.71573,R,ugm-3,1.91604,R,ugm-3,,,,4.717,R,ugm-3 (Ref.eq)
06-01-2023,05:00,14.700,R,ugm-3 (FIDAS),0.19595,R,ugm-3,2.62315,R,ugm-3,2.92361,R,ugm-3,,,,7.241,R,ugm-3 (Ref.eq)
06-01-2023,06:00,10.725,R,ugm-3 (FIDAS),0.39191,R,ugm-3,3.56151,R,ugm-3,4.16242,R,ugm-3,,,,5.024,R,ugm-3 (Ref.eq)
06-01-2023,07:00,4.525,R,ugm-3 (FIDAS),0.35925,R,ugm-3,5.19727,R,ugm-3,5.74811,R,ugm-3,,,,2.052,R,ugm-3 (Ref.eq)
06-01-2023,08:00,7.825,R,ugm-3 (FIDAS),0.35925,R,ugm-3,10.44986,R,ugm-3,11.00069,R,ugm-3,,,,2.972,R,ugm-3 (Ref.eq)
06-01-2023,09:00,6.100,R,ugm-3 (FIDAS),1.20838,R,ugm-3,12.51745,R,ugm-3,14.37028,R,ugm-3,,,,2.524,R,ugm-3 (Ref.eq)
06-01-2023,10:00,8.200,R,ugm-3 (FIDAS),6.98901,R,ugm-3,26.59684,R,ugm-3,37.31317,R,ugm-3,,,,3.467,R,ugm-3 (Ref.eq)
06-01-2023,11:00,9.225,R,ugm-3 (FIDAS),0.84913,R,ugm-3,4.59479,R,ugm-3,5.89677,R,ugm-3,,,,3.656,R,ugm-3 (Ref.eq)
06-01-2023,12:00,9.275,R,ugm-3 (FIDAS),0.81647,R,ugm-3,4.94218,R,ugm-3,6.19409,R,ugm-3,,,,3.750,R,ugm-3 (Ref.eq)
06-01-2023,13:00,7.275,R,ugm-3 (FIDAS),0.94711,R,ugm-3,10.14311,R,ugm-3,11.59533,R,ugm-3,,,,3.184,R,ugm-3 (Ref.eq)
06-01-2023,14:00,4.125,R,ugm-3 (FIDAS),0.84913,R,ugm-3,7.71660,R,ugm-3,9.01859,R,ugm-3,,,,2.099,R,ugm-3 (Ref.eq)
06-01-2023,15:00,2.450,R,ugm-3 (FIDAS),0.58786,R,ugm-3,6.38287,R,ugm-3,7.28424,R,ugm-3,,,,1.439,R,ugm-3 (Ref.eq)
06-01-2023,16:00,7.225,R,ugm-3 (FIDAS),0.78382,R,ugm-3,6.47883,R,ugm-3,7.68067,R,ugm-3,,,,3.892,R,ugm-3 (Ref.eq)
06-01-2023,17:00,5.125,R,ugm-3 (FIDAS),0.52254,R,ugm-3,6.18571,R,ugm-3,6.98693,R,ugm-3,,,,3.278,R,ugm-3 (Ref.eq)
06-01-2023,18:00,7.950,R,ugm-3 (FIDAS),0.94711,R,ugm-3,5.53471,R,ugm-3,6.98693,R,ugm-3,,,,4.528,R,ugm-3 (Ref.eq)
06-01-2023,19:00,10.750,R,ugm-3 (FIDAS),0.91445,R,ugm-3,3.90000,R,ugm-3,5.30214,R,ugm-3,,,,5.189,R,ugm-3 (Ref.eq)
06-01-2023,20:00,8.100,R,ugm-3 (FIDAS),0.78382,R,ugm-3,4.34807,R,ugm-3,5.54990,R,ugm-3,,,,4.245,R,ugm-3 (Ref.eq)
06-01-2023,21:00,8.175,R,ugm-3 (FIDAS),1.01243,R,ugm-3,5.08769,R,ugm-3,6.64006,R,ugm-3,,,,4.033,R,ugm-3 (Ref.eq)
06-01-2023,22:00,8.050,R,ugm-3 (FIDAS),1.14306,R,ugm-3,4.78828,R,ugm-3,6.54096,R,ugm-3,,,,3.986,R,ugm-3 (Ref.eq)
06-01-2023,23:00,7.775,R,ugm-3 (FIDAS),1.50231,R,ugm-3,4.38610,R,ugm-3,6.68961,R,ugm-3,,,,4.175,R,ugm-3 (Ref.eq)
06-01-2023,24:00,8.750,R,ugm-3 (FIDAS),1.82890,R,ugm-3,3.24115,R,ugm-3,6.04543,R,ugm-3,,,,4.764,R,ugm-3 (Ref.eq)
07-01-2023,01:00,9.725,R,ugm-3 (FIDAS),1.91599,R,ugm-3,3.47100,R,ugm-3,6.40881,R,ugm-3,,,,5.283,R,ugm-3 (Ref.eq)
07-01-2023,02:00,10.475,R,ugm-3 (FIDAS),,,,,,,,,,,,,5.307,R,ugm-3 (Ref.eq)
07-01-2023,03:00,10.550,R,ugm-3 (FIDAS),,,,,,,,,,,,,5.542,R,ugm-3 (Ref.eq)
07-01-2023,04:00,12.625,R,ugm-3 (FIDAS),,,,,,,,,,,,,5.896,R,ugm-3 (Ref.eq)
07-01-2023,05:00,12.400,R,ugm-3 (FIDAS),,,,,,,,,,,,,5.991,R,ugm-3 (Ref.eq)
07-01-2023,06:00,12.600,R,ugm-3 (FIDAS),,,,,,,,,,,,,5.873,R,ugm-3 (Ref.eq)
07-01-2023,07:00,13.225,R,ugm-3 (FIDAS),,,,,,,,,,,,,5.967,R,ugm-3 (Ref.eq)
07-01-2023,08:00,13.300,R,ugm-3 (FIDAS),,,,,,,,,,,,,6.109,R,ugm-3 (Ref.eq)
07-01-2023,09:00,13.775,R,ugm-3 (FIDAS),,,,,,,,,,,,,6.604,R,ugm-3 (Ref.eq)
07-01-2023,10:00,15.575,R,ugm-3 (FIDAS),,,,,,,,,,,,,7.311,R,ugm-3 (Ref.eq)
07-01-2023,11:00,14.400,R,ugm-3 (FIDAS),,,,,,,,,,,,,7.193,R,ugm-3 (Ref.eq)
07-01-2023,12:00,13.625,R,ugm-3 (FIDAS),,,,,,,,,,,,,7.028,R,ugm-3 (Ref.eq)
07-01-2023,13:00,12.775,R,ugm-3 (FIDAS),,,,,,,,,,,,,7.241,R,ugm-3 (Ref.eq)
07-01-2023,14:00,12.975,R,ugm-3 (FIDAS),,,,,,,,,,,,,6.745,R,ugm-3 (Ref.eq)
07-01-2023,15:00,14.575,R,ugm-3 (FIDAS),,,,,,,,,,,,,7.406,R,ugm-3 (Ref.eq)
07-01-2023,16:00,15.275,R,ugm-3 (FIDAS),,,,,,,,,,,,,8.042,R,ugm-3 (Ref.eq)
07-01-2023,17:00,13.200,R,ugm-3 (FIDAS),,,,,,,,,,,,,6.910,R,ugm-3 (Ref.eq)
07-01-2023,18:00,13.875,R,ugm-3 (FIDAS),,,,,,,,,,,,,7.217,R,ugm-3 (Ref.eq)
07-01-2023,19:00,18.500,R,ugm-3 (FIDAS),,,,,,,,,,,,,8.679,R,ugm-3 (Ref.eq)
07-01-2023,20:00,20.625,R,ugm-3 (FIDAS),,,,,,,,,,,,,9.222,R,ugm-3 (Ref.eq)
07-01-2023,21:00,20.350,R,ugm-3 (FIDAS),,,,,,,,,,,,,9.576,R,ugm-3 (Ref.eq)
07-01-2023,22:00,18.850,R,ugm-3 (FIDAS),,,,,,,,,,,,,8.868,R,ugm-3 (Ref.eq)
07-01-2023,23:00,20.400,R,ugm-3 (FIDAS),,,,,,,,,,,,,9.104,R,ugm-3 (Ref.eq)
07-01-2023,24:00,21.100,R,ugm-3 (FIDAS),,,,,,,,,,,,,9.528,R,ugm-3 (Ref.eq)
08-01-2023,01:00,21.000,R,ugm-3 (FIDAS),,,,,,,,,,,,,9.693,R,ugm-3 (Ref.eq)
08-01-2023,02:00,19.875,R,ugm-3 (FIDAS),,,,,,,,,,,,,9.316,R,ugm-3 (Ref.eq)
08-01-2023,03:00,21.575,R,ugm-3 (FIDAS),,,,,,,,,,,,,9.953,R,ugm-3 (Ref.eq)
08-01-2023,04:00,19.600,R,ugm-3 (FIDAS),,,,,,,,,,,,,9.316,R,ugm-3 (Ref.eq)
08-01-2023,05:00,18.325,R,ugm-3 (FIDAS),,,,,,,,,,,,,8.679,R,ugm-3 (Ref.eq)
08-01-2023,06:00,18.025,R,ugm-3 (FIDAS),,,,,,,,,,,,,8.113,R,ugm-3 (Ref.eq)
08-01-2023,07:00,14.075,R,ugm-3 (FIDAS),,,,,,,,,,,,,5.826,R,ugm-3 (Ref.eq)
08-01-2023,08:00,15.350,R,ugm-3 (FIDAS),,,,,,,,,,,,,6.627,R,ugm-3 (Ref.eq)
08-01-2023,09:00,17.925,R,ugm-3 (FIDAS),,,,,,,,,,,,,8.113,R,ugm-3 (Ref.eq)
08-01-2023,10:00,17.375,R,ugm-3 (FIDAS),,,,,,,,,,,,,7.618,R,ugm-3 (Ref.eq)
08-01-2023,11:00,18.200,R,ugm-3 (FIDAS),,,,,,,,,,,,,8.255,R,ugm-3 (Ref.eq)
08-01-2023,12:00,18.000,R,ugm-3 (FIDAS),,,,,,,,,,,,,8.632,R,ugm-3 (Ref.eq)
08-01-2023,13:00,17.700,R,ugm-3 (FIDAS),,,,,,,,,,,,,8.396,R,ugm-3 (Ref.eq)
08-01-2023,14:00,17.125,R,ugm-3 (FIDAS),,,,,,,,,,,,,8.137,R,ugm-3 (Ref.eq)
08-01-2023,15:00,17.300,R,ugm-3 (FIDAS),,,,,,,,,,,,,8.255,R,ugm-3 (Ref.eq)
08-01-2023,16:00,11.225,R,ugm-3 (FIDAS),,,,,,,,,,,,,5.212,R,ugm-3 (Ref.eq)
08-01-2023,17:00,11.000,R,ugm-3 (FIDAS),,,,,,,,,,,,,4.717,R,ugm-3 (Ref.eq)
08-01-2023,18:00,12.425,R,ugm-3 (FIDAS),,,,,,,,,,,,,5.354,R,ugm-3 (Ref.eq)
08-01-2023,19:00,13.175,R,ugm-3 (FIDAS),,,,,,,,,,,,,5.401,R,ugm-3 (Ref.eq)
08-01-2023,20:00,15.725,R,ugm-3 (FIDAS),,,,,,,,,,,,,6.109,R,ugm-3 (Ref.eq)
08-01-2023,21:00,15.375,R,ugm-3 (FIDAS),,,,,,,,,,,,,6.934,R,ugm-3 (Ref.eq)
08-01-2023,22:00,14.075,R,ugm-3 (FIDAS),,,,,,,,,,,,,6.557,R,ugm-3 (Ref.eq)
08-01-2023,23:00,13.050,R,ugm-3 (FIDAS),,,,,,,,,,,,,6.061,R,ugm-3 (Ref.eq)
08-01-2023,24:00,13.825,R,ugm-3 (FIDAS),,,,,,,,,,,,,6.533,R,ugm-3 (Ref.eq)
09-01-2023,01:00,8.550,R,ugm-3 (FIDAS),,,,,,,,,,,,,4.080,R,ugm-3 (Ref.eq)
09-01-2023,02:00,6.125,R,ugm-3 (FIDAS),,,,,,,,,,,,,2.736,R,ugm-3 (Ref.eq)
09-01-2023,03:00,7.050,R,ugm-3 (FIDAS),,,,,,,,,,,,,3.302,R,ugm-3 (Ref.eq)
09-01-2023,04:00,9.450,R,ugm-3 (FIDAS),,,,,,,,,,,,,4.057,R,ugm-3 (Ref.eq)
09-01-2023,05:00,7.675,R,ugm-3 (FIDAS),,,,,,,,,,,,,3.679,R,ugm-3 (Ref.eq)
09-01-2023,06:00,6.875,R,ugm-3 (FIDAS),,,,,,,,,,,,,3.160,R,ugm-3 (Ref.eq)
09-01-2023,07:00,7.300,R,ugm-3 (FIDAS),,,,,,,,,,,,,3.137,R,ugm-3 (Ref.eq)
09-01-2023,08:00,8.700,R,ugm-3 (FIDAS),,,,,,,,,,,,,3.443,R,ugm-3 (Ref.eq)
09-01-2023,09:00,10.375,R,ugm-3 (FIDAS),,,,,,,,,,,,,4.363,R,ugm-3 (Ref.eq)
09-01-2023,10:00,11.150,R,ugm-3 (FIDAS),,,,,,,,,,,,,5.000,R,ugm-3 (Ref.eq)
09-01-2023,11:00,6.250,R,ugm-3 (FIDAS),,,,,,,,,,,,,3.066,R,ugm-3 (Ref.eq)
09-01-2023,12:00,4.600,R,ugm-3 (FIDAS),,,,,,,,,,,,,2.382,R,ugm-3 (Ref.eq)
09-01-2023,13:00,4.250,R,ugm-3 (FIDAS),,,,,,,,,,,,,2.217,R,ugm-3 (Ref.eq)
09-01-2023,14:00,4.725,R,ugm-3 (FIDAS),,,,,,,,,,,,,2.571,R,ugm-3 (Ref.eq)
09-01-2023,15:00,6.650,R,ugm-3 (FIDAS),,,,,,,,,,,,,3.396,R,ugm-3 (Ref.eq)
09-01-2023,16:00,9.725,R,ugm-3 (FIDAS),,,,,,,,,,,,,5.212,R,ugm-3 (Ref.eq)
09-01-2023,17:00,11.175,R,ugm-3 (FIDAS),,,,,,,,,,,,,5.684,R,ugm-3 (Ref.eq)
09-01-2023,18:00,9.875,R,ugm-3 (FIDAS),,,,,,,,,,,,,5.071,R,ugm-3 (Ref.eq)
09-01-2023,19:00,11.800,R,ugm-3 (FIDAS),,,,,,,,,,,,,5.896,R,ugm-3 (Ref.eq)
09-01-2023,20:00,16.575,R,ugm-3 (FIDAS),,,,,,,,,,,,,7.288,R,ugm-3 (Ref.eq)
09-01-2023,21:00,18.175,R,ugm-3 (FIDAS),,,,,,,,,,,,,8.656,R,ugm-3 (Ref.eq)
09-01-2023,22:00,22.175,R,ugm-3 (FIDAS),,,,,,,,,,,,,10.094,R,ugm-3 (Ref.eq)
09-01-2023,23:00,21.725,R,ugm-3 (FIDAS),,,,,,,,,,,,,10.094,R,ugm-3 (Ref.eq)
09-01-2023,24:00,21.150,R,ugm-3 (FIDAS),,,,,,,,,,,,,9.717,R,ugm-3 (Ref.eq)
10-01-2023,01:00,20.475,R,ugm-3 (FIDAS),,,,,,,,,,,,,9.198,R,ugm-3 (Ref.eq)
10-01-2023,02:00,20.750,R,ugm-3 (FIDAS),,,,,,,,,,,,,8.986,R,ugm-3 (Ref.eq)
10-01-2023,03:00,20.950,R,ugm-3 (FIDAS),,,,,,,,,,,,,8.892,R,ugm-3 (Ref.eq)
10-01-2023,04:00,19.900,R,ugm-3 (FIDAS),,,,,,,,,,,,,8.679,R,ugm-3 (Ref.eq)
10-01-2023,05:00,19.775,R,ugm-3 (FIDAS),,,,,,,,,,,,,8.868,R,ugm-3 (Ref.eq)
10-01-2023,06:00,19.525,R,ugm-3 (FIDAS),,,,,,,,,,,,,8.538,R,ugm-3 (Ref.eq)
10-01-2023,07:00,20.075,R,ugm-3 (FIDAS),,,,,,,,,,,,,10.047,R,ugm-3 (Ref.eq)
10-01-2023,08:00,16.500,R,ugm-3 (FIDAS),,,,,,,,,,,,,8.797,R,ugm-3 (Ref.eq)
10-01-2023,09:00,10.225,R,ugm-3 (FIDAS),,,,,,,,,,,,,5.495,R,ugm-3 (Ref.eq)
10-01-2023,10:00,4.800,R,ugm-3 (FIDAS),,,,,,,,,,,,,2.807,R,ugm-3 (Ref.eq)
10-01-2023,11:00,5.050,R,ugm-3 (FIDAS),,,,,,,,,,,,,2.901,R,ugm-3 (Ref.eq)
10-01-2023,12:00,4.850,R,ugm-3 (FIDAS),,,,,,,,,,,,,2.736,R,ugm-3 (Ref.eq)
10-01-2023,13:00,11.025,R,ugm-3 (FIDAS),,,,,,,,,,,,,5.991,R,ugm-3 (Ref.eq)
10-01-2023,14:00,15.000,R,ugm-3 (FIDAS),,,,,,,,,,,,,7.995,R,ugm-3 (Ref.eq)
10-01-2023,15:00,16.900,R,ugm-3 (FIDAS),,,,,,,,,,,,,9.387,R,ugm-3 (Ref.eq)
10-01-2023,16:00,17.000,R,ugm-3 (FIDAS),,,,,,,,,,,,,9.340,R,ugm-3 (Ref.eq)
10-01-2023,17:00,19.525,R,ugm-3 (FIDAS),,,,,,,,,,,,,11.132,R,ugm-3 (Ref.eq)
10-01-2023,18:00,14.175,R,ugm-3 (FIDAS),,,,,,,,,,,,,8.349,R,ugm-3 (Ref.eq)
10-01-2023,19:00,13.325,R,ugm-3 (FIDAS),,,,,,,,,,,,,7.948,R,ugm-3 (Ref.eq)
10-01-2023,20:00,17.075,R,ugm-3 (FIDAS),,,,,,,,,,,,,9.387,R,ugm-3 (Ref.eq)
10-01-2023,21:00,14.800,R,ugm-3 (FIDAS),,,,,,,,,,,,,8.137,R,ugm-3 (Ref.eq)
10-01-2023,22:00,7.625,R,ugm-3 (FIDAS),,,,,,,,,,,,,4.741,R,ugm-3 (Ref.eq)
10-01-2023,23:00,8.225,R,ugm-3 (FIDAS),,,,,,,,,,,,,4.835,R,ugm-3 (Ref.eq)